Location: Alberta Star Party
(51.6612°N, 112.9089°W)
Time: 11:23:24
(UTC-06:00)

Amateur Radio Satellites - All Passes

Search period start: 04 May 2016 10:53
Search period end: 05 May 2016 10:53
Location: Alberta Star Party, 51.6612°N, 112.9089°W

Satellite Date Start Highest point End Downlink Frequencies (MHz)
Time Altitude Azimuth
ANTELSAT 04 May 10:55:09 10:59:47 90° 55° (NE) 11:04:21 437.575/2403.000
AAUSAT CUBESAT 2 04 May 10:56:33 11:00:37 55° 289° (WNW) 11:04:40 437.432
Cosmos 2504 04 May 10:58:20 11:00:31 11° 291° (WNW) 11:02:45 435.465 / 435.565
BUGSAT 1 04 May 11:04:20 11:06:55 16° 57° (ENE) 11:09:31 437.445
CANX-2 04 May 11:06:50 11:10:05 22° 299° (WNW) 11:13:19 2200.000
DOVE 4 04 May 11:08:41 11:11:22 14° 309° (NW) 11:14:00 437.250
Cosmos 2499 04 May 11:09:22 11:15:20 24° 57° (ENE) 11:21:37 435.465 / 435.565
NANOSAT C BR1 04 May 11:12:07 11:15:55 32° 65° (ENE) 11:19:45 145.865
SO-50 04 May 11:20:59 11:24:33 20° 348° (NNW) 11:28:06 436.795
Cosmos 2491 04 May 11:24:55 11:28:17 12° 325° (NW) 11:31:39 435.465 / 435.565
Oscar 11 04 May 11:31:14 11:35:29 59° 289° (WNW) 11:39:43 145.826/435.025
AO-7 04 May 11:31:50 11:32:18 10° 6° (N) 11:32:45 29.400- 29.500
CINEMA 3 04 May 11:39:15 11:42:03 16° 306° (NW) 11:44:47 145.822/145.860
CUTE 1.7 + AOD 2 04 May 11:40:13 11:42:16 13° 304° (NW) 11:44:20 437.475
HUMSAT D 04 May 11:40:45 11:44:43 46° 99° (E) 11:48:38 437.325/437.525
FUNcube-1 04 May 11:45:32 11:49:37 50° 291° (WNW) 11:53:38 145.935
UNISAT 6 04 May 11:50:23 11:54:28 30° 265° (W) 11:58:29 437.425
AISAT 04 May 11:50:46 11:52:17 11° 85° (E) 11:53:49 437.250
DELFI C3 04 May 11:55:49 11:59:45 58° 288° (WNW) 12:03:40 145.870
UWE-3 04 May 12:02:34 12:06:07 26° 298° (WNW) 12:09:36 435.000/436.395/437.385
AIST 1 04 May 12:02:54 12:07:21 83° 79° (ENE) 12:11:46
DUCHIFAT 1 04 May 12:03:06 12:07:23 89° 50° (NE) 12:11:41 145.980
COMPASS 1 04 May 12:04:26 12:06:25 13° 304° (NW) 12:08:25 437.405
SEEDS 04 May 12:05:16 12:06:12 11° 307° (NW) 12:07:08 437.485
QB50P2 04 May 12:06:00 12:10:18 76° 257° (WSW) 12:14:37 145.880/145.840
TIGRISAT 04 May 12:07:52 12:11:30 23° 268° (W) 12:15:08 435.000
POLYITAN 1 04 May 12:08:11 12:12:29 75° 258° (WSW) 12:16:48 437.675
HO-68 04 May 12:09:15 12:14:50 26° 311° (NW) 12:20:25 435.675
POPSAT HIP 1 04 May 12:10:18 12:14:35 73° 257° (WSW) 12:18:54 437.405
QB50P1 04 May 12:13:23 12:17:40 67° 258° (WSW) 12:21:57 145.935-145.965
CUBEBUG 2 04 May 12:14:25 12:17:13 17° 303° (WNW) 12:19:57 437.445
ESTCUBE 1 04 May 12:14:51 12:18:37 25° 93° (E) 12:22:22 437.505/2401.250
GONETS M04 04 May 12:16:41 12:25:32 81° 79° (E) 12:34:16
CUBEBUG 1 04 May 12:21:07 12:24:32 21° 91° (E) 12:27:54 437.445
PHONESAT 2.4 04 May 12:22:31 12:23:37 11° 179° (S) 12:24:42 2401.200-2431.200
ISS 04 May 12:23:16 12:26:30 61° 198° (SSW) 12:29:44 145.825
ZACube-1 04 May 12:29:28 12:32:39 21° 300° (WNW) 12:35:46 437.345
JAS-2 04 May 12:31:02 12:36:51 39° 59° (ENE) 12:43:21 435.910
ANTELSAT 04 May 12:34:55 12:37:09 13° 273° (W) 12:39:22 437.575/2403.000
BUGSAT 1 04 May 12:37:30 12:41:46 80° 257° (WSW) 12:46:04 437.445
Oscar 19 04 May 12:39:32 12:43:44 26° 58° (ENE) 12:47:58 437.125/150
DX 1 04 May 12:43:36 12:47:28 29° 95° (E) 12:51:18 434.975-435.025
UKube-1 04 May 12:46:49 12:50:30 26° 94° (E) 12:54:09 .
NANOSAT C BR1 04 May 12:47:45 12:51:39 33° 264° (W) 12:55:33 145.865
Gurwin Techsat 1B 04 May 12:49:48 12:53:00 16° 51° (NE) 12:56:12 435.225
50 SAT 04 May 12:51:12 12:54:43 42° 99° (E) 12:58:12 437.505
VELOX 1 04 May 12:52:45 12:56:59 39° 98° (E) 13:01:11 145.980
Cosmos 2499 04 May 13:01:53 13:09:34 87° 78° (ENE) 13:17:52 435.465 / 435.565
SO-50 04 May 13:03:09 13:06:43 20° 12° (NNE) 13:10:12 436.795
SPROUT 04 May 13:13:17 13:17:00 27° 94° (E) 13:20:39 437.525
AO-7 04 May 13:16:35 13:21:50 19° 33° (NNE) 13:27:06 29.400- 29.500
HUMSAT D 04 May 13:16:55 13:20:07 22° 298° (WNW) 13:23:18 437.325/437.525
AO-85 04 May 13:18:51 13:24:01 45° 122° (ESE) 13:29:07 145.980
AISAT 04 May 13:25:00 13:29:32 82° 105° (ESE) 13:34:00 437.250
TISAT 1 04 May 13:41:03 13:43:54 17° 90° (E) 13:46:44 437.305
DUCHIFAT 1 04 May 13:42:01 13:43:44 12° 274° (W) 13:45:27 145.980
AIST 1 04 May 13:42:15 13:44:17 13° 279° (W) 13:46:20
ESTCUBE 1 04 May 13:51:17 13:55:39 47° 292° (WNW) 13:59:59 437.505/2401.250
CUBEBUG 1 04 May 13:56:47 14:01:08 54° 290° (WNW) 14:05:28 437.445
ISS 04 May 14:00:12 14:02:32 18° 217° (SW) 14:04:50 145.825
ITAMSAT 1 04 May 14:02:05 14:06:18 26° 58° (ENE) 14:10:32 435.822/435.867
GONETS M04 04 May 14:14:25 14:21:25 28° 282° (WNW) 14:28:23
JAS-2 04 May 14:15:38 14:21:42 53° 262° (W) 14:28:38 435.910
BUGSAT 1 04 May 14:17:01 14:17:52 10° 275° (W) 14:18:44 437.445
Oscar 19 04 May 14:17:34 14:22:42 62° 258° (WSW) 14:27:54 437.125/150
DX 1 04 May 14:19:40 14:23:45 38° 294° (WNW) 14:27:49 434.975-435.025
UKube-1 04 May 14:22:36 14:26:43 42° 293° (WNW) 14:30:48 .
50 SAT 04 May 14:25:33 14:28:17 20° 297° (WNW) 14:31:02 437.505
Gurwin Techsat 1B 04 May 14:26:50 14:32:09 76° 72° (ENE) 14:37:29 435.225
ITUPSAT 1 04 May 14:29:06 14:30:56 12° 85° (E) 14:32:46 437.325
VELOX 1 04 May 14:29:28 14:33:21 30° 297° (WNW) 14:37:14 145.980
SWISSCUBE 04 May 14:36:40 14:39:34 16° 88° (E) 14:42:27 437.505
O/OREOS (USA 219) 04 May 14:39:10 14:42:26 20° 102° (ESE) 14:45:44 437.305
CUSAT 1 04 May 14:40:20 14:42:26 13° 76° (ENE) 14:44:47 437.405
SO-50 04 May 14:43:47 14:48:23 42° 36° (NE) 14:52:51 436.795
SPROUT 04 May 14:49:03 14:53:04 39° 293° (WNW) 14:57:04 437.525
Cosmos 2499 04 May 14:56:03 15:01:51 24° 281° (W) 15:07:57 435.465 / 435.565
AO-85 04 May 14:59:19 15:04:36 49° 321° (NW) 15:09:44 145.980
AISAT 04 May 15:02:37 15:05:27 17° 304° (NW) 15:08:17 437.250
AO-7 04 May 15:04:58 15:12:50 51° 57° (ENE) 15:20:47 29.400- 29.500
BEESAT 04 May 15:08:51 15:12:55 27° 94° (E) 15:16:57 436.000
TISAT 1 04 May 15:15:46 15:19:58 61° 289° (WNW) 15:24:07 437.305
Cosmos 2491 04 May 15:30:04 15:33:57 13° 37° (NE) 15:37:49 435.465 / 435.565
HORYU 2 04 May 15:38:07 15:40:43 15° 55° (NE) 15:43:18 437.375
DANDE 04 May 15:39:56 15:42:04 16° 82° (E) 15:44:32 436.750
ITAMSAT 1 04 May 15:40:20 15:45:26 60° 258° (WSW) 15:50:36 435.822/435.867
Oscar 19 04 May 16:02:38 16:03:07 10° 278° (W) 16:03:35 437.125/150
ITUPSAT 1 04 May 16:04:48 16:09:36 79° 105° (ESE) 16:14:22 437.325
JAS-2 04 May 16:07:32 16:08:43 10° 286° (WNW) 16:09:54 435.910
Gurwin Techsat 1B 04 May 16:08:54 16:12:42 20° 271° (W) 16:16:30 435.225
PCSat 04 May 16:10:14 16:15:20 43° 117° (ESE) 16:20:28 145.827
SWISSCUBE 04 May 16:13:11 16:17:59 81° 288° (WNW) 16:22:45 437.505
O/OREOS (USA 219) 04 May 16:16:49 16:21:24 65° 301° (WNW) 16:25:59 437.305
NOAA 18 04 May 16:17:09 16:18:55 12° 44° (NE) 16:20:40 137.9125
CUSAT 1 04 May 16:19:26 16:23:22 78° 284° (WNW) 16:28:42 437.405
NOAA 15 04 May 16:23:07 16:25:15 12° 47° (NE) 16:27:24 137.62
SO-50 04 May 16:24:25 16:28:57 43° 237° (WSW) 16:33:19 436.795
Cubesat XI-IV 04 May 16:33:22 16:34:30 11° 45° (NE) 16:35:37 437.490
KKS-1 04 May 16:41:59 16:45:57 30° 95° (E) 16:49:53 437.445
BRITE-PL 04 May 16:41:59 16:43:14 11° 45° (NE) 16:44:28 437.365/2234.400
AO-85 04 May 16:42:07 16:46:16 22° 344° (NNW) 16:50:15 145.980
BEESAT 04 May 16:46:21 16:50:55 47° 293° (WNW) 16:55:29 436.000
STARS 04 May 16:53:32 16:57:01 22° 92° (E) 17:00:27 437.465
TISAT 1 04 May 16:54:16 16:54:47 10° 309° (NW) 16:55:18 437.305
AO-7 04 May 16:57:44 17:05:42 50° 259° (W) 17:13:45 29.400- 29.500
MOZHAYETS 4 04 May 16:59:22 17:03:28 31° 95° (E) 17:07:33
HORYU 2 04 May 17:12:11 17:16:40 90° 262° (W) 17:21:09 437.375
DANDE 04 May 17:21:09 17:24:18 41° 292° (WNW) 17:28:24 436.750
CUTE-I 04 May 17:24:29 17:28:36 23° 56° (ENE) 17:32:44 437.470
Cosmos 2491 04 May 17:25:35 17:33:56 43° 66° (ENE) 17:42:10 435.465 / 435.565
HO-68 04 May 17:27:08 17:28:49 11° 30° (NNE) 17:30:31 435.675
GOMX 1 04 May 17:40:54 17:44:14 17° 53° (NE) 17:47:39 467.674
ITUPSAT 1 04 May 17:43:37 17:46:55 19° 304° (NW) 17:50:12 437.325
LilacSat-2 04 May 17:45:07 17:47:58 20° 62° (ENE) 17:50:50 437.200
YUBILEINY 04 May 17:47:06 17:52:31 18° 72° (ENE) 17:57:55 435.215
SWISSCUBE 04 May 17:52:22 17:55:05 15° 307° (NW) 17:57:46 437.505
NOAA 18 04 May 17:53:07 17:58:22 48° 65° (ENE) 18:03:38 137.9125
PCSat 04 May 17:53:33 17:58:45 45° 318° (NW) 18:04:01 145.827
NOAA 15 04 May 17:58:49 18:03:57 55° 67° (ENE) 18:09:09 137.62
O/OREOS (USA 219) 04 May 17:59:02 18:01:45 15° 323° (NW) 18:04:26 437.305
M-CUBED/EXP-1 PRIME 04 May 18:02:43 18:06:32 25° 55° (NE) 18:10:16 437.505
CUSAT 1 04 May 18:04:33 18:06:56 14° 313° (NW) 18:09:36 437.405
Cubesat XI-IV 04 May 18:08:18 18:13:22 46° 66° (ENE) 18:18:27 437.490
BRITE-PL 04 May 18:15:33 18:20:22 47° 67° (ENE) 18:25:34 437.365/2234.400
KKS-1 04 May 18:18:27 18:22:37 38° 294° (WNW) 18:26:44 437.445
AUBIESAT-1 04 May 18:19:23 18:23:20 29° 57° (ENE) 18:27:10 437.475
AO-85 04 May 18:24:41 18:28:30 20° 9° (N) 18:32:05 145.980
STARS 04 May 18:29:22 18:33:40 51° 291° (WNW) 18:37:55 437.465
MOZHAYETS 4 04 May 18:36:29 18:40:43 38° 294° (WNW) 18:44:56
CUBESAT XI-V 04 May 18:49:47 18:54:22 48° 99° (E) 18:58:54 437.345
HORYU 2 04 May 18:51:52 18:53:54 13° 273° (W) 18:55:55 437.375
CANX-2 04 May 18:55:43 18:57:08 12° 54° (NE) 18:58:33 2200.000
AO-7 04 May 18:59:02 19:00:42 11° 282° (WNW) 19:02:24 29.400- 29.500
BEESAT 3 04 May 19:00:37 19:04:15 37° 122° (ESE) 19:07:57 437.485
DOVE 4 04 May 19:02:19 19:07:05 37° 64° (ENE) 19:11:57 437.250
CUTE-I 04 May 19:02:53 19:08:12 71° 256° (WSW) 19:13:33 437.470
HO-68 04 May 19:08:17 19:14:28 33° 54° (NE) 19:20:40 435.675
BEESAT 2 04 May 19:12:10 19:15:41 30° 120° (ESE) 19:19:14 435.950
GOMX 1 04 May 19:16:16 19:21:27 79° 73° (ENE) 19:26:56 467.674
LilacSat-2 04 May 19:18:15 19:22:01 48° 261° (W) 19:25:47 437.200
STRAND 1 04 May 19:22:17 19:24:18 12° 84° (E) 19:26:19 437.568
Cosmos 2491 04 May 19:22:34 19:31:09 57° 269° (W) 19:39:38 435.465 / 435.565
CUTE 1.7 + AOD 2 04 May 19:26:18 19:29:14 19° 60° (ENE) 19:32:11 437.475
CINEMA 3 04 May 19:31:04 19:35:10 26° 61° (ENE) 19:39:13 145.822/145.860
NOAA 18 04 May 19:34:16 19:39:13 33° 265° (W) 19:44:10 137.9125
M-CUBED/EXP-1 PRIME 04 May 19:36:09 19:40:49 58° 253° (WSW) 19:45:20 437.505
YUBILEINY 04 May 19:39:05 19:47:44 72° 95° (E) 19:56:24 435.215
NOAA 15 04 May 19:39:37 19:44:03 27° 267° (W) 19:48:33 137.62
PCSat 04 May 19:39:41 19:43:32 19° 343° (NNW) 19:47:23 145.827
Cubesat XI-IV 04 May 19:48:51 19:53:37 32° 265° (W) 19:58:24 437.490
COMPASS 1 04 May 19:49:16 19:52:02 18° 59° (ENE) 19:54:47 437.405
SEEDS 04 May 19:49:17 19:52:32 22° 62° (ENE) 19:55:48 437.485
AUBIESAT-1 04 May 19:53:10 19:57:39 48° 255° (WSW) 20:02:00 437.475
UWE-3 04 May 19:54:26 19:56:10 12° 53° (NE) 19:57:54 435.000/436.395/437.385
BRITE-PL 04 May 19:54:36 19:59:03 31° 268° (W) 20:03:50 437.365/2234.400
Cosmos 2504 04 May 19:55:15 20:00:51 25° 80° (E) 20:06:27 435.465 / 435.565
CUBEBUG 2 04 May 20:04:40 20:07:58 19° 59° (ENE) 20:11:13 437.445
AO-85 04 May 20:05:37 20:10:21 37° 33° (NNE) 20:14:42 145.980
AAUSAT CUBESAT 2 04 May 20:17:11 20:20:33 25° 63° (ENE) 20:23:57 437.432
ZACube-1 04 May 20:19:34 20:21:50 14° 55° (NE) 20:24:04 437.345
CUBESAT XI-V 04 May 20:27:35 20:31:32 27° 298° (WNW) 20:35:29 437.345
CANX-2 04 May 20:28:04 20:32:16 72° 73° (ENE) 20:36:29 2200.000
BEESAT 3 04 May 20:38:17 20:42:00 37° 322° (NW) 20:45:43 437.485
DOVE 4 04 May 20:39:48 20:44:43 41° 264° (W) 20:49:46 437.250
RS-15 04 May 20:45:06 20:53:08 23° 98° (E) 21:01:25 29.354- 29.394
CUTE-I 04 May 20:47:10 20:49:14 12° 276° (W) 20:51:19 437.470
BEESAT 2 04 May 20:49:37 20:53:26 44° 320° (NW) 20:57:19 435.950
PRISM 04 May 20:53:28 20:56:07 16° 90° (E) 20:58:45 437.425
HO-68 04 May 20:54:36 21:01:45 71° 255° (WSW) 21:08:56 435.675
Oscar 11 04 May 20:55:36 20:59:16 28° 64° (ENE) 21:02:58 145.826/435.025
GOMX 1 04 May 20:56:31 21:00:12 19° 274° (W) 21:04:01 467.674
STRAND 1 04 May 20:59:16 21:04:24 74° 104° (ESE) 21:09:31 437.568
CUTE 1.7 + AOD 2 04 May 21:00:31 21:04:42 62° 259° (WSW) 21:08:53 437.475
AIST 2 04 May 21:01:30 21:05:10 32° 120° (ESE) 21:08:53 435.215
HUMSAT D 04 May 21:05:21 21:06:10 10° 53° (NE) 21:06:59 437.325/437.525
CINEMA 3 04 May 21:07:02 21:11:59 58° 260° (W) 21:16:55 145.822/145.860
FUNcube-1 04 May 21:10:04 21:14:04 33° 65° (ENE) 21:18:00 145.935
DELFI C3 04 May 21:13:08 21:16:06 21° 62° (ENE) 21:19:05 145.870
Cosmos 2491 04 May 21:21:59 21:25:56 14° 293° (WNW) 21:29:53 435.465 / 435.565
COMPASS 1 04 May 21:23:04 21:27:10 65° 258° (WSW) 21:31:19 437.405
SEEDS 04 May 21:23:58 21:28:00 48° 261° (W) 21:32:03 437.485
PCSat 04 May 21:25:36 21:29:03 17° 9° (N) 21:32:29 145.827
UWE-3 04 May 21:27:18 21:31:52 68° 72° (ENE) 21:36:21 435.000/436.395/437.385
YUBILEINY 04 May 21:37:37 21:45:21 34° 299° (WNW) 21:53:07 435.215
CUBEBUG 2 04 May 21:39:25 21:44:08 72° 257° (WSW) 21:48:45 437.445
AO-85 04 May 21:46:16 21:51:04 53° 236° (SW) 21:55:26 145.980
Cosmos 2504 04 May 21:46:18 21:53:30 75° 283° (WNW) 22:00:44 435.465 / 435.565
AAUSAT CUBESAT 2 04 May 21:52:00 21:55:54 40° 262° (W) 21:59:49 437.432
ZACube-1 04 May 21:52:58 21:57:28 82° 76° (ENE) 22:01:55 437.345
CANX-2 04 May 22:06:16 22:08:38 15° 272° (W) 22:11:01 2200.000
BEESAT 3 04 May 22:18:27 22:20:45 15° 345° (NNW) 22:23:02 437.485
VELOX 1 04 May 22:22:00 22:23:43 12° 52° (NE) 22:25:27 145.980
PRISM 04 May 22:27:43 22:31:52 65° 288° (WNW) 22:36:00 437.425
BEESAT 2 04 May 22:29:45 22:32:16 16° 343° (NNW) 22:34:47 435.950
Oscar 11 04 May 22:31:16 22:35:18 39° 263° (W) 22:39:22 145.826/435.025
HUMSAT D 04 May 22:36:52 22:41:02 66° 73° (ENE) 22:45:11 437.325/437.525
STRAND 1 04 May 22:39:16 22:43:06 22° 304° (WNW) 22:46:55 437.568
AIST 2 04 May 22:39:35 22:43:34 45° 320° (NW) 22:47:35 435.215
ANTELSAT 04 May 22:43:17 22:45:10 13° 86° (E) 22:47:02 437.575/2403.000
FUNcube-1 04 May 22:46:11 22:50:18 35° 264° (W) 22:54:21 145.935
HO-68 04 May 22:46:39 22:50:48 16° 276° (W) 22:54:59 435.675
DELFI C3 04 May 22:46:55 22:50:44 47° 261° (W) 22:54:35 145.870
RS-15 04 May 22:52:01 23:03:21 73° 123° (ESE) 23:15:19 29.354- 29.394
AISAT 04 May 22:52:23 22:55:47 22° 59° (ENE) 22:59:11 437.250
O/OREOS (USA 219) 04 May 23:03:33 23:06:50 19° 41° (NE) 23:10:05 437.305
UWE-3 04 May 23:05:38 23:08:46 18° 271° (W) 23:11:52 435.000/436.395/437.385
PCSat 04 May 23:09:19 23:14:10 31° 34° (NE) 23:19:00 145.827
ESTCUBE 1 04 May 23:19:19 23:23:34 43° 67° (ENE) 23:27:50 437.505/2401.250
CUBEBUG 2 04 May 23:20:29 23:21:33 11° 276° (W) 23:22:38 437.445
CUBEBUG 1 04 May 23:21:57 23:25:54 34° 65° (ENE) 23:29:55 437.445
GONETS M04 04 May 23:31:21 23:37:13 20° 73° (ENE) 23:43:06
ZACube-1 04 May 23:31:57 23:34:21 14° 273° (W) 23:36:43 437.345
50 SAT 04 May 23:34:49 23:38:18 44° 70° (ENE) 23:41:48 437.505
UNISAT 6 04 May 23:36:08 23:40:13 38° 97° (E) 23:44:13 437.425
Cosmos 2504 04 May 23:43:32 23:48:21 19° 308° (NW) 23:53:13 435.465 / 435.565
DX 1 04 May 23:43:58 23:48:11 50° 68° (ENE) 23:52:27 434.975-435.025
YUBILEINY 04 May 23:44:26 23:45:48 10° 329° (NNW) 23:47:10 435.215
UKube-1 04 May 23:46:12 23:50:19 44° 67° (ENE) 23:54:28 .
QB50P2 04 May 23:47:16 23:49:08 13° 87° (E) 23:51:01 145.880/145.840
POLYITAN 1 04 May 23:49:26 23:51:21 13° 87° (E) 23:53:15 437.675
POPSAT HIP 1 04 May 23:51:19 23:53:19 13° 87° (E) 23:55:19 437.405
TIGRISAT 04 May 23:52:46 23:57:02 52° 100° (E) 00:01:12 435.000
QB50P1 04 May 23:54:06 23:56:22 14° 88° (E) 23:58:38 145.935-145.965
VELOX 1 04 May 23:54:59 23:59:24 68° 71° (ENE) 00:03:51 145.980
BEESAT 3 04 May 23:58:03 00:00:01 13° 9° (N) 00:01:58 437.485
Cosmos 2499 04 May 23:58:33 00:00:49 12° 70° (ENE) 00:03:06 435.465 / 435.565
PRISM 05 May 00:05:30 00:06:23 11° 308° (NW) 00:07:17 437.425
BEESAT 2 05 May 00:09:44 00:11:40 13° 7° (N) 00:13:35 435.950
SPROUT 05 May 00:11:46 00:15:50 41° 68° (ENE) 00:19:55 437.525
HUMSAT D 05 May 00:14:32 00:17:07 16° 271° (W) 00:19:42 437.325/437.525
BUGSAT 1 05 May 00:16:26 00:17:29 11° 85° (E) 00:18:32 437.445
ANTELSAT 05 May 00:18:11 00:22:34 86° 286° (WNW) 00:26:51 437.575/2403.000
AIST 2 05 May 00:20:19 00:23:03 17° 343° (NNW) 00:25:46 435.215
NANOSAT C BR1 05 May 00:26:37 00:30:15 27° 94° (E) 00:33:49 145.865
AISAT 05 May 00:27:30 00:31:55 59° 259° (W) 00:36:22 437.250
DANDE 05 May 00:28:17 00:29:12 10° 48° (NE) 00:30:07 436.750
TISAT 1 05 May 00:37:32 00:41:07 27° 63° (ENE) 00:44:43 437.305
AIST 1 05 May 00:37:51 00:41:49 36° 91° (E) 00:45:50
O/OREOS (USA 219) 05 May 00:42:20 00:46:54 87° 240° (WSW) 00:51:24 437.305
BEESAT 05 May 00:46:40 00:48:02 11° 49° (NE) 00:49:24 436.000
PCSat 05 May 00:52:38 00:58:05 74° 236° (SW) 01:03:29 145.827
ESTCUBE 1 05 May 00:56:44 01:00:32 27° 266° (W) 01:04:22 437.505/2401.250
CUBEBUG 1 05 May 00:58:13 01:02:12 33° 264° (W) 01:06:15 437.445
CUSAT 1 05 May 01:03:33 01:09:40 31° 62° (ENE) 01:16:31 437.405
RS-15 05 May 01:05:11 01:16:35 56° 332° (NNW) 01:28:35 29.354- 29.394
50 SAT 05 May 01:09:47 01:12:20 18° 268° (W) 01:14:53 437.505
UNISAT 6 05 May 01:13:06 01:16:51 28° 297° (WNW) 01:20:32 437.425
DUCHIFAT 1 05 May 01:17:31 01:21:47 78° 102° (ESE) 01:25:59 145.980
JAS-2 05 May 01:18:35 01:24:50 26° 86° (E) 01:31:05 435.910
DX 1 05 May 01:21:12 01:24:39 22° 267° (W) 01:28:08 434.975-435.025
QB50P2 05 May 01:21:18 01:25:35 85° 283° (WNW) 01:29:49 145.880/145.840
UKube-1 05 May 01:22:59 01:26:34 25° 266° (W) 01:30:10 .
POLYITAN 1 05 May 01:23:30 01:27:46 84° 288° (WNW) 01:32:00 437.675
GONETS M04 05 May 01:23:46 01:32:35 77° 96° (E) 01:41:25
POPSAT HIP 1 05 May 01:25:27 01:29:43 82° 289° (WNW) 01:33:56 437.405
QB50P1 05 May 01:28:27 01:32:43 76° 287° (WNW) 01:36:55 145.935-145.965
TIGRISAT 05 May 01:30:04 01:33:26 22° 300° (WNW) 01:36:44 435.000
VELOX 1 05 May 01:33:26 01:36:21 17° 271° (W) 01:39:17 145.980
BEESAT 3 05 May 01:35:30 01:38:57 28° 32° (NNE) 01:42:23 437.485
ITUPSAT 1 05 May 01:40:05 01:44:02 27° 61° (ENE) 01:48:02 437.325
Cosmos 2499 05 May 01:45:21 01:52:13 59° 93° (E) 01:59:16 435.465 / 435.565
BEESAT 2 05 May 01:47:28 01:50:49 25° 30° (NNE) 01:54:10 435.950
SWISSCUBE 05 May 01:47:49 01:52:04 33° 63° (ENE) 01:56:20 437.505
SPROUT 05 May 01:48:17 01:51:56 26° 266° (W) 01:55:36 437.525
BUGSAT 1 05 May 01:49:20 01:53:36 84° 104° (ESE) 01:57:45 437.445
ANTELSAT 05 May 01:56:24 01:58:38 14° 305° (NW) 02:00:49 437.575/2403.000
AIST 2 05 May 02:00:53 02:03:07 14° 7° (N) 02:05:20 435.215
NANOSAT C BR1 05 May 02:02:09 02:06:06 38° 293° (WNW) 02:10:01 145.865
DANDE 05 May 02:07:39 02:13:36 40° 68° (ENE) 02:20:50 436.750
TISAT 1 05 May 02:12:37 02:16:38 40° 262° (W) 02:20:42 437.305
AIST 1 05 May 02:15:43 02:19:30 29° 291° (WNW) 02:23:20
BEESAT 05 May 02:20:13 02:24:52 56° 69° (ENE) 02:29:32 436.000
O/OREOS (USA 219) 05 May 02:23:34 02:25:34 13° 262° (W) 02:27:33 437.305
Oscar 19 05 May 02:23:43 02:28:22 32° 95° (E) 02:32:58 437.125/150
MOZHAYETS 4 05 May 02:33:58 02:34:27 10° 50° (NE) 02:34:55
PCSat 05 May 02:37:45 02:40:34 14° 256° (WSW) 02:43:21 145.827
Gurwin Techsat 1B 05 May 02:38:15 02:42:07 20° 89° (E) 02:45:58 435.225
CUSAT 1 05 May 02:45:17 02:52:24 79° 260° (W) 03:00:28 437.405
DUCHIFAT 1 05 May 02:54:24 02:56:57 16° 303° (WNW) 02:59:30 145.980
QB50P2 05 May 02:58:40 03:00:45 13° 305° (NW) 03:02:49 145.880/145.840
POLYITAN 1 05 May 03:00:53 03:02:55 13° 305° (NW) 03:04:57 437.675
POPSAT HIP 1 05 May 03:02:50 03:04:50 13° 305° (NW) 03:06:49 437.405
JAS-2 05 May 03:02:54 03:10:43 89° 287° (WNW) 03:18:35 435.910
QB50P1 05 May 03:06:02 03:07:46 12° 306° (NW) 03:09:30 145.935-145.965
BEESAT 3 05 May 03:13:01 03:16:57 59° 233° (SW) 03:20:49 437.485
ITUPSAT 1 05 May 03:17:02 03:21:40 50° 260° (W) 03:26:19 437.325
RS-15 05 May 03:20:42 03:32:01 45° 5° (N) 03:43:42 29.354- 29.394
GONETS M04 05 May 03:22:38 03:30:21 33° 300° (WNW) 03:38:07
BEESAT 2 05 May 03:25:05 03:29:05 72° 231° (SW) 03:33:03 435.950
SWISSCUBE 05 May 03:25:23 03:29:50 38° 263° (W) 03:34:17 437.505
BUGSAT 1 05 May 03:26:01 03:28:23 15° 304° (NW) 03:30:45 437.445
AIST 2 05 May 03:39:20 03:42:55 27° 31° (NNE) 03:46:28 435.215
Cosmos 2499 05 May 03:39:31 03:45:47 34° 296° (WNW) 03:52:16 435.465 / 435.565
KKS-1 05 May 03:44:52 03:49:14 54° 69° (ENE) 03:53:39 437.445
YUBILEINY 05 May 03:46:42 03:51:16 15° 41° (NE) 03:55:48 435.215
ITAMSAT 1 05 May 03:47:41 03:52:20 32° 95° (E) 03:56:57 435.822/435.867
DANDE 05 May 03:50:21 03:56:39 55° 264° (W) 04:04:20 436.750
STARS 05 May 03:54:57 03:59:04 38° 66° (ENE) 04:03:13 437.465
BEESAT 05 May 03:59:16 04:03:00 23° 268° (W) 04:06:46 436.000
Oscar 19 05 May 04:02:53 04:07:52 46° 294° (WNW) 04:12:48 437.125/150
MOZHAYETS 4 05 May 04:06:13 04:10:40 55° 70° (ENE) 04:15:08
Gurwin Techsat 1B 05 May 04:17:20 04:22:40 74° 289° (WNW) 04:27:58 435.225
CUBESAT XI-V 05 May 04:23:32 04:26:06 15° 54° (NE) 04:28:40 437.345
CUSAT 1 05 May 04:28:38 04:33:45 21° 278° (W) 04:39:15 437.405
JAS-2 05 May 04:48:38 04:54:53 28° 308° (NW) 05:01:17 435.910
AO-7 05 May 04:52:32 05:00:23 43° 98° (E) 05:08:13 29.400- 29.500
HORYU 2 05 May 04:59:42 05:01:18 12° 86° (E) 05:02:55 437.375
BEESAT 2 05 May 05:05:24 05:06:12 10° 250° (WSW) 05:06:59 435.950
AIST 2 05 May 05:17:38 05:21:46 69° 233° (SW) 05:25:53 435.215
KKS-1 05 May 05:22:40 05:26:08 22° 268° (W) 05:29:38 437.445
ITAMSAT 1 05 May 05:27:02 05:31:58 45° 294° (WNW) 05:36:54 435.822/435.867
GONETS M04 05 May 05:30:20 05:30:59 10° 331° (NNW) 05:31:40
STARS 05 May 05:31:38 05:35:32 29° 265° (W) 05:39:27 437.465
RS-15 05 May 05:34:53 05:47:02 67° 37° (NE) 05:59:22 29.354- 29.394
DANDE 05 May 05:35:55 05:38:32 12° 281° (WNW) 05:41:20 436.750
Cosmos 2504 05 May 05:38:52 05:43:07 16° 49° (NE) 05:47:29 435.465 / 435.565
YUBILEINY 05 May 05:42:24 05:50:49 49° 69° (ENE) 05:59:11 435.215
MOZHAYETS 4 05 May 05:44:41 05:48:11 21° 269° (W) 05:51:42
Oscar 19 05 May 05:45:12 05:45:59 10° 315° (NW) 05:46:47 437.125/150
CUBESAT XI-V 05 May 05:58:10 06:02:47 83° 74° (ENE) 06:07:28 437.345
Gurwin Techsat 1B 05 May 05:58:39 06:01:47 16° 309° (NW) 06:04:56 435.225
NOAA 15 05 May 06:10:00 06:12:32 13° 85° (E) 06:15:03 137.62
NOAA 18 05 May 06:11:34 06:13:34 12° 84° (E) 06:15:35 137.9125
BRITE-PL 05 May 06:16:18 06:18:50 13° 81° (E) 06:21:21 437.365/2234.400
Cubesat XI-IV 05 May 06:22:06 06:23:47 11° 83° (E) 06:25:28 437.490
HORYU 2 05 May 06:34:08 06:38:36 85° 105° (ESE) 06:43:02 437.375
Cosmos 2491 05 May 06:34:10 06:42:04 39° 84° (E) 06:49:59 435.465 / 435.565
STRAND 1 05 May 06:42:22 06:46:49 32° 62° (ENE) 06:51:18 437.568
SO-50 05 May 06:44:26 06:47:47 18° 112° (ESE) 06:51:07 436.795
AO-7 05 May 06:45:22 06:53:29 59° 300° (WNW) 07:01:36 29.400- 29.500
LilacSat-2 05 May 06:47:36 06:49:29 13° 88° (E) 06:51:21 437.200
AIST 2 05 May 06:58:43 06:59:29 10° 251° (WSW) 07:00:14 435.215
ITAMSAT 1 05 May 07:09:39 07:10:15 10° 315° (NW) 07:10:52 435.822/435.867
GOMX 1 05 May 07:13:39 07:17:30 19° 86° (E) 07:21:16 467.674
CUTE-I 05 May 07:14:34 07:19:16 31° 94° (E) 07:23:57 437.470
Cosmos 2504 05 May 07:30:55 07:38:21 58° 73° (ENE) 07:46:17 435.465 / 435.565
CUBESAT XI-V 05 May 07:38:17 07:40:50 15° 274° (W) 07:43:24 437.345
YUBILEINY 05 May 07:39:28 07:47:42 49° 272° (W) 07:55:56 435.215
RS-15 05 May 07:47:47 07:59:31 56° 244° (WSW) 08:11:18 29.354- 29.394
PRISM 05 May 07:47:49 07:51:10 25° 62° (ENE) 07:54:32 437.425
NOAA 15 05 May 07:47:52 07:53:14 77° 105° (ESE) 07:58:33 137.62
NOAA 18 05 May 07:49:49 07:55:17 68° 104° (ESE) 08:00:43 137.9125
BRITE-PL 05 May 07:52:39 07:58:22 68° 101° (E) 08:03:58 437.365/2234.400
Cubesat XI-IV 05 May 07:59:34 08:04:53 67° 103° (ESE) 08:10:11 437.490
HORYU 2 05 May 08:11:54 08:14:35 16° 305° (NW) 08:17:16 437.375
HO-68 05 May 08:17:26 08:22:04 18° 85° (E) 08:26:41 435.675
ISS 05 May 08:18:14 08:21:15 35° 153° (SSE) 08:24:17 145.825
LilacSat-2 05 May 08:20:28 08:24:16 67° 287° (WNW) 08:28:01 437.200
STRAND 1 05 May 08:20:58 08:25:51 46° 261° (W) 08:30:47 437.568
SO-50 05 May 08:22:45 08:27:41 89° 298° (WNW) 08:32:37 436.795
Cosmos 2491 05 May 08:29:48 08:38:32 62° 287° (WNW) 08:47:20 435.465 / 435.565
DOVE 4 05 May 08:33:14 08:38:11 43° 96° (E) 08:42:50 437.250
AO-7 05 May 08:39:00 08:44:42 21° 324° (NW) 08:50:25 29.400- 29.500
CUTE 1.7 + AOD 2 05 May 08:40:56 08:43:35 16° 89° (E) 08:46:14 437.475
M-CUBED/EXP-1 PRIME 05 May 08:45:37 08:49:27 43° 104° (ESE) 08:52:59 437.505
GOMX 1 05 May 08:50:44 08:56:15 79° 287° (WNW) 09:01:30 467.674
CUTE-I 05 May 08:54:26 08:59:33 49° 294° (WNW) 09:04:39 437.470
CINEMA 3 05 May 08:57:04 09:00:53 25° 91° (E) 09:04:33 145.822/145.860
COMPASS 1 05 May 09:01:41 09:03:59 14° 88° (E) 09:06:18 437.405
AUBIESAT-1 05 May 09:01:49 09:05:41 53° 106° (ESE) 09:09:15 437.475
SEEDS 05 May 09:02:52 09:05:57 20° 91° (E) 09:09:02 437.485
UNISAT 6 05 May 09:06:34 09:08:19 12° 53° (NE) 09:10:02 437.425
TIGRISAT 05 May 09:22:03 09:24:41 15° 56° (NE) 09:27:18 435.000
PRISM 05 May 09:22:25 09:26:18 42° 261° (W) 09:30:15 437.425
Cosmos 2504 05 May 09:24:43 09:31:29 37° 274° (W) 09:38:40 435.465 / 435.565
CUBEBUG 2 05 May 09:26:07 09:28:52 16° 88° (E) 09:31:34 437.445
NOAA 15 05 May 09:28:28 09:32:30 22° 304° (NW) 09:36:31 137.62
AAUSAT CUBESAT 2 05 May 09:29:04 09:32:18 21° 92° (E) 09:35:31 437.432
NOAA 18 05 May 09:31:09 09:35:32 25° 304° (NW) 09:39:54 137.9125
GONETS M04 05 May 09:31:29 09:36:29 16° 42° (NE) 09:41:27
BRITE-PL 05 May 09:31:41 09:36:23 27° 301° (WNW) 09:41:02 437.365/2234.400
ZACube-1 05 May 09:38:40 09:39:26 10° 84° (E) 09:40:12 437.345
YUBILEINY 05 May 09:40:06 09:42:12 11° 296° (WNW) 09:44:18 435.215
Cubesat XI-IV 05 May 09:40:20 09:44:34 25° 303° (WNW) 09:48:47 437.490
CANX-2 05 May 09:43:21 09:47:36 69° 103° (ESE) 09:51:48 2200.000
ANTELSAT 05 May 09:46:22 09:50:02 24° 61° (ENE) 09:53:39 437.575/2403.000
ISS 05 May 09:54:15 09:57:32 86° 168° (SSE) 10:00:49 145.825
RS-15 05 May 10:03:01 10:09:02 15° 269° (W) 10:15:04 29.354- 29.394
HO-68 05 May 10:03:48 10:11:00 77° 106° (ESE) 10:18:10 435.675
SO-50 05 May 10:04:33 10:08:47 28° 334° (NNW) 10:13:00 436.795
DOVE 4 05 May 10:11:08 10:15:45 33° 297° (WNW) 10:20:08 437.250
Oscar 11 05 May 10:12:57 10:16:36 26° 93° (E) 10:20:14 145.826/435.025
CUTE 1.7 + AOD 2 05 May 10:15:41 10:19:53 66° 288° (WNW) 10:24:04 437.475
DELFI C3 05 May 10:20:04 10:22:32 16° 89° (E) 10:25:00 145.870
M-CUBED/EXP-1 PRIME 05 May 10:20:33 10:23:48 23° 306° (NW) 10:26:50 437.505
FUNcube-1 05 May 10:28:39 10:32:22 30° 94° (E) 10:36:02 145.935
GOMX 1 05 May 10:30:00 10:33:29 18° 307° (NW) 10:36:54 467.674
Cosmos 2491 05 May 10:31:44 10:37:37 19° 314° (NW) 10:43:31 435.465 / 435.565
AO-7 05 May 10:33:04 10:34:22 10° 351° (N) 10:35:41 29.400- 29.500
CINEMA 3 05 May 10:33:48 10:38:18 47° 292° (WNW) 10:42:34 145.822/145.860
COMPASS 1 05 May 10:35:54 10:40:04 72° 286° (WNW) 10:44:13 437.405
CUTE-I 05 May 10:36:55 10:38:26 11° 315° (NW) 10:39:57 437.470
AUBIESAT-1 05 May 10:36:56 10:39:51 20° 307° (NW) 10:42:36 437.475
SEEDS 05 May 10:37:54 10:41:58 52° 289° (WNW) 10:46:03 437.485
AIST 1 05 May 10:39:26 10:42:33 18° 63° (ENE) 10:45:39
UNISAT 6 05 May 10:39:40 10:44:15 67° 72° (ENE) 10:48:45 437.425
DUCHIFAT 1 05 May 10:40:34 10:43:21 17° 58° (ENE) 10:46:08 145.980
QB50P2 05 May 10:44:29 10:47:40 21° 60° (ENE) 10:50:52 145.880/145.840
POLYITAN 1 05 May 10:46:39 10:49:53 21° 60° (ENE) 10:53:06 437.675
